Weather in Pocatello

United States     42°52′23″N   112°27′00″W
В апреле 2022 года жителям России запретили посещать сайт meteo.paraplan.net по решению Генеральной прокуратуры. Аудитория сайта уменьшилась в 10 раз. Владельцы сайта не видят смысла в поддержке погодного сервера в таких условиях. Сайт будет закрыт в октябре.
temp.,
°C
wind,
m/s
gust,
m/s
humid.,
%
clouds,
%
prec.,
mm/h
press.,
hPa
HPBL,
m
4 october, tue
tue400:00+11e11490 0.0 102110
03:00+10se11510 0.0 102010
06:00+9ese11521 0.0 102010
09:00+12se11445 0.0 102171
12:00+18nnw22325 0.0 10191205
15:00+20nnw43260 0.0 10171697
18:00+19nnw33275 0.0 10161439
21:00+14se11380 0.0 101911
5 october, wed
wed500:00+13se22400 0.0 102010
03:00+11se22430 0.0 102010
06:00+10se22470 0.0 102111
09:00+13se11400 0.0 102267
12:00+19nne11270 0.0 1020981
15:00+22nnw22215 0.0 10181975
18:00+21nnw332263 0.0 1017345
21:00+15e112953 0.0 101911
6 october, thu
thu600:00+14se113184 0.0 102010
03:00+13se22345 0.0 102110
06:00+11se22375 0.0 102210
09:00+14se12320 0.0 102257
12:00+21n21215 0.0 10201085
15:00+23nnw32173 0.0 10182169
18:00+22nnw33195 0.0 1018205
21:00+15e11285 0.0 102011
7 october, fri
fri700:00+14sse22300 0.0 102111
03:00+13se22335 0.0 102211
06:00+12se22355 0.0 102210
09:00+14se22315 0.0 102363
12:00+20nw11225 0.0 1021932
15:00+23nnw421887 0.0 10182069
18:00+22nnw331978 0.0 1018163
21:00+16e112684 0.0 102011
8 october, sat
sat800:00+14se222912 0.0 102012
03:00+13se22325 0.0 102011
06:00+12se223442 0.0 102112
09:00+14se233191 0.0 102172
12:00+21s231974 0.0 10181169
15:00+24wnw441524 0.0 10152800
18:00+21wnw451875 0.0 1014235
21:00+15s442991 0.0 101728